Date,TemperatureHighF,TemperatureAvgF,TemperatureLowF,DewpointHighF,DewpointAvgF,DewpointLowF,HumidityHigh,HumidityAvg,HumidityLow,PressureMaxIn,PressureMinIn,WindSpeedMaxMPH,WindSpeedAvgMPH,GustSpeedMaxMPH,PrecipitationSumIn
2013-2-1,57.4,53.6,51.0,52.8,50.7,48.6,92,90,80,30.19,29.84,18,6,18,0.00
2013-2-2,58.6,54.4,44.8,53.5,51.1,41.2,94,89,79,29.83,29.35,27,11,27,0.09
2013-2-3,52.4,47.7,43.8,46.2,41.6,36.7,89,80,71,29.92,29.47,22,7,22,0.16
2013-2-4,52.4,46.0,41.8,38.5,34.1,29.6,78,63,45,30.13,29.92,17,4,17,0.00
2013-2-5,54.3,48.7,42.4,49.4,40.6,32.5,90,74,62,30.12,29.82,18,4,18,0.02
2013-2-6,55.0,51.1,47.2,49.5,44.5,36.0,90,78,63,29.83,29.53,23,8,23,0.02
2013-2-7,51.2,45.2,40.4,43.2,39.7,36.8,91,81,67,29.58,29.50,20,7,20,0.46
2013-2-8,46.9,42.4,37.3,38.6,35.2,32.0,93,76,62,29.75,29.52,20,8,20,0.14
2013-2-9,43.5,40.0,38.1,35.8,32.7,30.9,87,75,66,29.86,29.70,18,5,18,0.01
2013-2-10,46.1,41.4,37.4,32.9,29.9,25.6,78,64,54,29.96,29.83,17,5,17,0.02
2013-2-11,52.2,45.3,39.7,46.6,38.7,29.6,92,78,65,29.96,29.66,29,11,29,0.51
2013-2-12,49.4,45.0,42.3,46.9,42.1,38.9,94,89,80,29.68,29.60,17,6,17,0.83
2013-2-13,53.6,46.5,42.5,45.0,41.6,39.6,93,83,69,29.81,29.64,13,4,13,0.14
2013-2-14,54.9,47.6,42.7,43.3,40.6,37.3,90,77,61,29.97,29.82,9,2,9,0.00
2013-2-15,54.2,47.5,44.0,43.7,40.7,36.3,90,78,64,30.01,29.96,12,4,12,0.22
2013-2-16,51.4,46.6,42.6,42.8,40.3,37.8,90,79,69,30.05,29.94,15,4,15,0.13
2013-2-17,53.3,47.7,42.5,43.1,39.7,34.5,84,74,63,30.05,29.97,13,3,13,0.02
2013-2-18,53.2,47.0,42.8,44.9,39.7,36.1,86,76,60,29.99,29.92,12,5,12,0.18
2013-2-19,52.2,45.6,40.7,39.2,36.0,32.9,85,70,52,29.99,29.92,12,4,12,0.00
2013-2-20,53.7,46.6,42.8,41.1,37.9,35.8,81,72,57,30.00,29.91,12,4,12,0.00
2013-2-21,49.7,46.1,43.7,43.8,39.4,36.3,89,78,65,29.91,29.69,8,3,8,0.04
2013-2-22,52.6,48.9,43.8,50.5,45.9,39.7,94,89,83,29.70,29.52,22,6,22,0.50
2013-2-23,56.5,51.6,46.9,50.9,48.2,43.4,95,88,77,29.69,29.53,25,10,25,0.17
2013-2-24,52.5,46.6,42.1,48.5,40.3,33.7,93,79,61,29.96,29.67,20,6,20,0.09
2013-2-25,48.4,44.6,39.7,42.7,38.7,34.1,92,80,69,30.02,29.95,16,4,16,0.24
2013-2-26,48.9,45.3,41.9,41.6,39.8,35.9,92,81,67,30.10,29.99,7,2,7,0.07
2013-2-27,54.2,47.6,43.9,45.3,41.2,37.3,91,79,61,30.18,30.08,12,3,12,0.00
2013-2-28,55.7,49.8,45.9,43.0,39.9,34.5,79,69,52,30.22,30.12,12,6,12,0.00